Time,TemperatureF,DewpointF,PressureIn,WindDirection,WindDirectionDegrees,WindSpeedMPH,WindSpeedGustMPH,Humidity,HourlyPrecipIn,Conditions,Clouds,dailyrainin,SoftwareType,DateUTC
2013-10-26 00:03:00,66.7,66.4,29.54,NNE,23,0.0,2.0,99,0.01,,,0.64,meteohub,2013-10-26 06:03:00,
2013-10-26 00:08:00,66.9,66.6,29.54,SW,225,0.0,2.0,99,0.01,,,0.00,meteohub,2013-10-26 06:08:00,
2013-10-26 00:13:00,66.9,66.6,29.54,SW,225,0.0,0.0,99,0.01,,,0.00,meteohub,2013-10-26 06:13:00,
2013-10-26 00:18:00,66.9,66.6,29.52,SW,225,0.0,0.0,99,0.01,,,0.00,meteohub,2013-10-26 06:18:00,
2013-10-26 00:23:00,66.9,66.6,29.52,WNW,293,0.0,0.0,99,0.01,,,0.00,meteohub,2013-10-26 06:23:00,
2013-10-26 00:28:00,66.7,66.4,29.52,WNW,293,0.0,0.0,99,0.01,,,0.00,meteohub,2013-10-26 06:28:00,
2013-10-26 00:33:00,66.7,66.4,29.53,WNW,293,0.0,0.0,99,0.01,,,0.00,meteohub,2013-10-26 06:33:00,
2013-10-26 00:38:00,66.7,66.4,29.53,WNW,293,0.0,0.0,99,0.00,,,0.00,meteohub,2013-10-26 06:38:00,
2013-10-26 00:43:00,66.7,66.4,29.52,WNW,293,0.0,0.0,99,0.00,,,0.00,meteohub,2013-10-26 06:43:00,
2013-10-26 00:48:00,66.7,66.4,29.52,WNW,293,0.0,0.0,99,0.00,,,0.00,meteohub,2013-10-26 06:48:00,
2013-10-26 00:53:00,66.7,66.4,29.52,WNW,293,0.0,0.0,99,0.00,,,0.00,meteohub,2013-10-26 06:53:00,
2013-10-26 00:58:00,66.7,66.4,29.51,WNW,293,0.0,0.0,99,0.00,,,0.00,meteohub,2013-10-26 06:58:00,
2013-10-26 01:03:00,66.6,66.2,29.52,WNW,293,0.0,0.0,99,0.00,,,0.00,meteohub,2013-10-26 07:03:00,
2013-10-26 01:08:00,66.6,66.2,29.51,WNW,293,0.0,0.0,99,0.00,,,0.00,meteohub,2013-10-26 07:08:00,
2013-10-26 01:13:00,66.6,66.2,29.51,WNW,293,0.0,0.0,99,0.00,,,0.00,meteohub,2013-10-26 07:13:00,
2013-10-26 01:18:00,66.4,66.0,29.51,WNW,293,0.0,0.0,99,0.00,,,0.00,meteohub,2013-10-26 07:18:00,
2013-10-26 01:23:00,66.2,65.8,29.50,WNW,293,0.0,0.0,99,0.00,,,0.00,meteohub,2013-10-26 07:23:00,
2013-10-26 01:28:00,66.2,65.8,29.51,WNW,293,0.0,0.0,99,0.00,,,0.00,meteohub,2013-10-26 07:28:00,
2013-10-26 01:33:00,66.2,65.8,29.50,WNW,293,0.0,0.0,99,0.00,,,0.00,meteohub,2013-10-26 07:33:00,
2013-10-26 01:38:00,66.2,65.8,29.51,WNW,293,0.0,0.0,99,0.00,,,0.00,meteohub,2013-10-26 07:38:00,
2013-10-26 01:44:00,66.0,65.7,29.49,WNW,293,0.0,0.0,99,0.00,,,0.00,meteohub,2013-10-26 07:44:00,
2013-10-26 01:49:00,66.0,65.7,29.50,WNW,293,0.0,0.0,99,0.00,,,0.00,meteohub,2013-10-26 07:49:00,
2013-10-26 01:54:00,65.8,65.5,29.50,WNW,293,0.0,0.0,99,0.00,,,0.00,meteohub,2013-10-26 07:54:00,
2013-10-26 01:59:00,65.8,65.5,29.49,WNW,293,0.0,0.0,99,0.00,,,0.00,meteohub,2013-10-26 07:59:00,
2013-10-26 02:04:00,65.8,65.5,29.49,WNW,293,0.0,0.0,99,0.00,,,0.00,meteohub,2013-10-26 08:04:00,
2013-10-26 02:09:00,65.8,65.5,29.49,SW,225,0.0,0.0,99,0.00,,,0.00,meteohub,2013-10-26 08:09:00,
2013-10-26 02:14:00,65.8,65.5,29.49,WNW,293,0.0,0.0,99,0.00,,,0.00,meteohub,2013-10-26 08:14:00,
2013-10-26 02:19:00,65.8,65.5,29.48,WNW,293,0.0,0.0,99,0.00,,,0.00,meteohub,2013-10-26 08:19:00,
2013-10-26 02:21:00,65.8,65.5,29.49,SW,225,0.0,0.0,99,0.00,,,0.00,meteohub,2013-10-26 08:21:00,
2013-10-26 02:27:00,65.8,65.5,29.48,SW,225,0.0,0.0,99,0.00,,,0.00,meteohub,2013-10-26 08:27:00,
2013-10-26 02:32:00,65.8,65.5,29.48,NNE,23,0.0,0.0,99,0.00,,,0.00,meteohub,2013-10-26 08:32:00,
2013-10-26 02:37:00,65.8,65.5,29.48,NNE,23,0.0,0.0,99,0.00,,,0.00,meteohub,2013-10-26 08:37:00,
2013-10-26 02:42:00,65.8,65.5,29.49,North,-999,-999.0,0.0,99,0.00,,,0.00,meteohub,2013-10-26 08:42:00,
2013-10-26 02:47:00,65.8,65.5,29.48,NNE,23,0.0,0.0,99,0.00,,,0.00,meteohub,2013-10-26 08:47:00,
2013-10-26 02:52:00,65.7,65.3,29.48,NNE,23,0.0,0.0,99,0.00,,,0.00,meteohub,2013-10-26 08:52:00,
2013-10-26 02:57:00,65.7,65.3,29.48,NNE,23,0.0,0.0,99,0.00,,,0.00,meteohub,2013-10-26 08:57:00,
2013-10-26 03:02:00,65.7,65.3,29.48,North,-999,-999.0,0.0,99,0.00,,,0.00,meteohub,2013-10-26 09:02:00,
2013-10-26 03:07:00,65.5,65.1,29.48,NNE,23,0.0,0.0,99,0.00,,,0.00,meteohub,2013-10-26 09:07:00,
2013-10-26 03:12:00,65.5,65.1,29.48,North,-999,-999.0,0.0,99,0.00,,,0.00,meteohub,2013-10-26 09:12:00,
2013-10-26 03:17:00,65.5,65.1,29.49,NNE,23,0.0,0.0,99,0.00,,,0.00,meteohub,2013-10-26 09:17:00,
2013-10-26 03:22:00,65.5,65.1,29.48,North,-999,-999.0,0.0,99,0.00,,,0.00,meteohub,2013-10-26 09:22:00,
2013-10-26 03:27:00,65.3,64.9,29.48,NNE,23,0.0,0.0,99,0.00,,,0.00,meteohub,2013-10-26 09:27:00,
2013-10-26 03:32:00,65.3,64.9,29.48,North,-999,-999.0,0.0,99,0.00,,,0.00,meteohub,2013-10-26 09:32:00,
2013-10-26 03:37:00,65.1,64.8,29.48,North,-999,-999.0,0.0,99,0.00,,,0.00,meteohub,2013-10-26 09:37:00,
2013-10-26 03:42:00,64.9,64.6,29.48,NNE,23,1.0,0.0,99,0.00,,,0.00,meteohub,2013-10-26 09:42:00,
2013-10-26 03:47:00,64.9,64.6,29.48,NNE,23,4.0,4.0,99,0.00,,,0.00,meteohub,2013-10-26 09:47:00,
2013-10-26 03:52:00,64.8,64.4,29.48,South,180,4.0,4.0,99,0.00,,,0.00,meteohub,2013-10-26 09:52:00,
2013-10-26 03:57:00,64.9,64.6,29.49,NNE,23,4.0,4.0,99,0.00,,,0.00,meteohub,2013-10-26 09:57:00,
2013-10-26 04:02:00,64.8,64.4,29.49,NNE,23,5.0,5.0,99,0.00,,,0.00,meteohub,2013-10-26 10:02:00,
2013-10-26 04:07:00,64.8,64.4,29.48,NNE,23,2.0,5.0,99,0.00,,,0.00,meteohub,2013-10-26 10:07:00,
2013-10-26 04:12:00,64.6,64.2,29.49,NNE,23,0.0,5.0,99,0.00,,,0.00,meteohub,2013-10-26 10:12:00,
2013-10-26 04:17:00,64.6,64.2,29.49,North,-999,-999.0,5.0,99,0.00,,,0.00,meteohub,2013-10-26 10:17:00,
2013-10-26 04:23:00,64.4,64.0,29.49,North,-999,-999.0,3.0,99,0.00,,,0.00,meteohub,2013-10-26 10:23:00,
2013-10-26 04:28:00,64.4,64.0,29.49,NNE,23,4.0,-999.0,99,0.00,,,0.00,meteohub,2013-10-26 10:28:00,
2013-10-26 04:33:00,64.2,63.3,29.49,North,-999,-999.0,4.0,97,0.00,,,0.00,meteohub,2013-10-26 10:33:00,
2013-10-26 04:38:00,64.2,63.3,29.50,North,-999,-999.0,4.0,97,0.00,,,0.00,meteohub,2013-10-26 10:38:00,
2013-10-26 04:43:00,64.2,63.3,29.50,South,180,4.0,4.0,97,0.00,,,0.00,meteohub,2013-10-26 10:43:00,
2013-10-26 04:48:00,64.2,63.3,29.50,NNE,23,0.0,5.0,97,0.00,,,0.00,meteohub,2013-10-26 10:48:00,
2013-10-26 04:53:00,64.0,63.1,29.52,NNE,23,4.0,5.0,97,0.00,,,0.00,meteohub,2013-10-26 10:53:00,
2013-10-26 04:58:00,64.0,63.1,29.52,NNE,23,5.0,5.0,97,0.00,,,0.00,meteohub,2013-10-26 10:58:00,
2013-10-26 05:03:00,64.0,63.1,29.53,North,-999,-999.0,5.0,97,0.00,,,0.00,meteohub,2013-10-26 11:03:00,
2013-10-26 05:08:00,64.0,63.1,29.52,NNE,23,1.0,5.0,97,0.00,,,0.00,meteohub,2013-10-26 11:08:00,
2013-10-26 05:13:00,64.0,63.1,29.54,North,-999,-999.0,1.0,97,0.00,,,0.00,meteohub,2013-10-26 11:13:00,
2013-10-26 05:18:00,64.2,63.3,29.55,NNE,23,0.0,1.0,97,0.00,,,0.00,meteohub,2013-10-26 11:18:00,
2013-10-26 05:23:00,64.2,63.3,29.54,NNE,23,6.0,6.0,97,0.00,,,0.00,meteohub,2013-10-26 11:23:00,
2013-10-26 05:28:00,64.4,63.9,29.55,NNE,23,5.0,5.0,98,0.00,,,0.00,meteohub,2013-10-26 11:28:00,
2013-10-26 05:33:00,65.5,64.2,29.55,SW,225,6.0,7.0,96,0.00,,,0.00,meteohub,2013-10-26 11:33:00,
2013-10-26 05:38:00,66.0,64.6,29.56,NNE,23,4.0,8.0,95,0.00,,,0.00,meteohub,2013-10-26 11:38:00,
2013-10-26 05:43:00,66.2,63.9,29.56,NNE,23,2.0,8.0,92,0.00,,,0.00,meteohub,2013-10-26 11:43:00,
2013-10-26 05:48:00,66.4,63.7,29.56,NNE,23,4.0,8.0,91,0.00,,,0.00,meteohub,2013-10-26 11:48:00,
2013-10-26 05:53:00,66.6,63.5,29.57,SW,225,2.0,5.0,90,0.00,,,0.00,meteohub,2013-10-26 11:53:00,
2013-10-26 05:58:00,66.7,63.7,29.57,SW,225,0.0,7.0,90,0.00,,,0.00,meteohub,2013-10-26 11:58:00,
2013-10-26 06:04:00,66.7,64.0,29.58,WNW,293,4.0,7.0,91,0.00,,,0.00,meteohub,2013-10-26 12:04:00,
2013-10-26 06:09:00,66.4,64.0,29.57,NW,315,4.0,7.0,92,0.00,,,0.00,meteohub,2013-10-26 12:09:00,
2013-10-26 06:14:00,66.0,64.2,29.58,WNW,293,7.0,7.0,94,0.00,,,0.00,meteohub,2013-10-26 12:14:00,
2013-10-26 06:19:00,65.7,63.9,29.59,NW,315,0.0,9.0,94,0.00,,,0.00,meteohub,2013-10-26 12:19:00,
2013-10-26 06:24:00,65.7,63.5,29.58,WNW,293,6.0,9.0,93,0.00,,,0.00,meteohub,2013-10-26 12:24:00,
2013-10-26 06:29:00,66.0,63.9,29.59,SW,225,0.0,9.0,93,0.00,,,0.00,meteohub,2013-10-26 12:29:00,
2013-10-26 06:34:00,66.7,64.4,29.58,NW,315,0.0,7.0,92,0.00,,,0.00,meteohub,2013-10-26 12:34:00,
2013-10-26 06:39:00,67.1,64.4,29.59,NW,315,3.0,6.0,91,0.00,,,0.00,meteohub,2013-10-26 12:39:00,
2013-10-26 06:44:00,67.8,65.1,29.58,NW,315,0.0,4.0,91,0.00,,,0.00,meteohub,2013-10-26 12:44:00,
2013-10-26 06:49:00,68.4,65.3,29.58,NW,315,0.0,4.0,90,0.00,,,0.00,meteohub,2013-10-26 12:49:00,
2013-10-26 06:54:00,68.7,65.3,29.59,WNW,293,0.0,4.0,89,0.00,,,0.00,meteohub,2013-10-26 12:54:00,
2013-10-26 06:59:00,68.7,65.3,29.59,SW,225,0.0,2.0,89,0.00,,,0.00,meteohub,2013-10-26 12:59:00,
2013-10-26 07:04:00,68.7,65.3,29.58,SW,225,1.0,2.0,89,0.00,,,0.00,meteohub,2013-10-26 13:04:00,
2013-10-26 07:09:00,68.9,65.1,29.59,West,270,0.0,2.0,88,0.00,,,0.00,meteohub,2013-10-26 13:09:00,
2013-10-26 07:14:00,69.4,65.7,29.58,West,270,3.0,3.0,88,0.00,,,0.00,meteohub,2013-10-26 13:14:00,
2013-10-26 07:19:00,70.0,65.7,29.59,WNW,293,4.0,4.0,86,0.00,,,0.00,meteohub,2013-10-26 13:19:00,
2013-10-26 07:24:00,69.8,65.1,29.58,SW,225,0.0,4.0,85,0.00,,,0.00,meteohub,2013-10-26 13:24:00,
2013-10-26 07:29:00,69.6,64.9,29.58,NNE,23,1.0,4.0,85,0.00,,,0.00,meteohub,2013-10-26 13:29:00,
2013-10-26 07:34:00,69.8,65.1,29.59,SW,225,1.0,4.0,85,0.00,,,0.00,meteohub,2013-10-26 13:34:00,
2013-10-26 07:39:00,70.0,64.9,29.59,NNE,23,0.0,2.0,84,0.00,,,0.00,meteohub,2013-10-26 13:39:00,
2013-10-26 07:44:00,70.2,65.1,29.59,NW,315,0.0,1.0,84,0.00,,,0.00,meteohub,2013-10-26 13:44:00,
2013-10-26 07:49:00,70.3,65.3,29.58,WNW,293,0.0,1.0,84,0.00,,,0.00,meteohub,2013-10-26 13:49:00,
2013-10-26 07:54:00,70.2,64.8,29.58,North,-999,-999.0,1.0,83,0.00,,,0.00,meteohub,2013-10-26 13:54:00,
2013-10-26 07:59:00,70.3,64.9,29.58,North,-999,-999.0,1.0,83,0.00,,,0.00,meteohub,2013-10-26 13:59:00,
2013-10-26 08:04:00,70.5,64.8,29.57,NNE,23,4.0,0.0,82,0.00,,,0.00,meteohub,2013-10-26 14:04:00,
2013-10-26 08:10:00,71.1,65.3,29.57,North,-999,-999.0,4.0,82,0.00,,,0.00,meteohub,2013-10-26 14:10:00,
2013-10-26 08:15:00,71.6,65.1,29.57,NNE,23,2.0,4.0,80,0.00,,,0.00,meteohub,2013-10-26 14:15:00,
2013-10-26 08:20:00,72.3,65.5,29.57,NNE,23,3.0,5.0,79,0.00,,,0.00,meteohub,2013-10-26 14:20:00,
2013-10-26 08:25:00,72.7,65.1,29.57,NNE,23,5.0,5.0,77,0.00,,,0.00,meteohub,2013-10-26 14:25:00,
2013-10-26 08:30:00,72.7,64.8,29.56,North,-999,-999.0,5.0,76,0.00,,,0.00,meteohub,2013-10-26 14:30:00,
2013-10-26 08:35:00,72.5,64.9,29.57,North,-999,-999.0,5.0,77,0.00,,,0.00,meteohub,2013-10-26 14:35:00,
2013-10-26 08:40:00,73.0,64.9,29.57,NNE,23,5.0,5.0,76,0.00,,,0.00,meteohub,2013-10-26 14:40:00,
2013-10-26 08:45:00,74.1,66.0,29.56,NNE,23,5.0,-999.0,76,0.00,,,0.00,meteohub,2013-10-26 14:45:00,
2013-10-26 08:50:00,75.4,65.7,29.56,NNE,23,4.0,5.0,72,0.00,,,0.00,meteohub,2013-10-26 14:50:00,
2013-10-26 08:55:00,75.7,65.3,29.55,WNW,293,6.0,7.0,70,0.00,,,0.00,meteohub,2013-10-26 14:55:00,
2013-10-26 09:00:00,75.4,64.0,29.56,South,180,7.0,7.0,68,0.00,,,0.00,meteohub,2013-10-26 15:00:00,
2013-10-26 09:05:00,75.7,64.4,29.56,West,270,3.0,8.0,68,0.00,,,0.00,meteohub,2013-10-26 15:05:00,
2013-10-26 09:10:00,77.5,65.3,29.55,WNW,293,2.0,8.0,66,0.00,,,0.00,meteohub,2013-10-26 15:10:00,
2013-10-26 09:15:00,78.3,64.6,29.55,NW,315,4.0,8.0,63,0.00,,,0.00,meteohub,2013-10-26 15:15:00,
2013-10-26 09:20:00,79.0,64.4,29.55,SW,225,5.0,5.0,61,0.00,,,0.00,meteohub,2013-10-26 15:20:00,
2013-10-26 09:25:00,79.7,65.1,29.55,WNW,293,5.0,5.0,61,0.00,,,0.00,meteohub,2013-10-26 15:25:00,
2013-10-26 09:30:00,79.7,64.6,29.54,WNW,293,5.0,5.0,60,0.00,,,0.00,meteohub,2013-10-26 15:30:00,
2013-10-26 09:35:00,79.3,64.8,29.54,NW,315,6.0,6.0,61,0.00,,,0.00,meteohub,2013-10-26 15:35:00,
2013-10-26 09:40:00,78.6,65.5,29.55,NW,315,8.0,8.0,64,0.00,,,0.00,meteohub,2013-10-26 15:40:00,
2013-10-26 09:45:00,78.3,65.1,29.54,WNW,293,8.0,8.0,64,0.00,,,0.00,meteohub,2013-10-26 15:45:00,
2013-10-26 09:50:00,77.9,64.8,29.55,WNW,293,5.0,8.0,64,0.00,,,0.00,meteohub,2013-10-26 15:50:00,
2013-10-26 09:55:00,78.4,65.3,29.54,NW,315,8.0,10.0,64,0.00,,,0.00,meteohub,2013-10-26 15:55:00,
2013-10-26 10:00:00,78.3,64.6,29.53,NW,315,4.0,10.0,63,0.00,,,0.00,meteohub,2013-10-26 16:00:00,
2013-10-26 10:05:00,78.8,64.8,29.52,WNW,293,5.0,11.0,62,0.00,,,0.00,meteohub,2013-10-26 16:05:00,
2013-10-26 10:10:00,79.9,65.3,29.52,SW,225,5.0,11.0,61,0.00,,,0.00,meteohub,2013-10-26 16:10:00,
2013-10-26 10:15:00,81.1,65.5,29.51,West,270,7.0,11.0,59,0.00,,,0.00,meteohub,2013-10-26 16:15:00,
2013-10-26 10:20:00,81.9,64.6,29.51,NW,315,8.0,9.0,56,0.00,,,0.00,meteohub,2013-10-26 16:20:00,
2013-10-26 10:26:00,80.6,64.0,29.51,NW,315,8.0,9.0,57,0.00,,,0.00,meteohub,2013-10-26 16:26:00,
2013-10-26 10:31:00,80.4,64.8,29.51,NW,315,8.0,9.0,59,0.00,,,0.00,meteohub,2013-10-26 16:31:00,
2013-10-26 10:36:00,80.8,64.0,29.50,NW,315,6.0,9.0,57,0.00,,,0.00,meteohub,2013-10-26 16:36:00,
2013-10-26 10:41:00,80.2,64.0,29.49,West,270,4.0,8.0,58,0.00,,,0.00,meteohub,2013-10-26 16:41:00,
2013-10-26 10:46:00,81.3,64.6,29.50,West,270,9.0,9.0,57,0.00,,,0.00,meteohub,2013-10-26 16:46:00,
2013-10-26 10:51:00,80.8,63.7,29.48,NW,315,4.0,15.0,56,0.00,,,0.00,meteohub,2013-10-26 16:51:00,
2013-10-26 10:56:00,80.2,66.0,29.49,West,270,10.0,15.0,62,0.00,,,0.00,meteohub,2013-10-26 16:56:00,
2013-10-26 11:01:00,80.8,66.0,29.48,West,270,8.0,15.0,61,0.00,,,0.00,meteohub,2013-10-26 17:01:00,
2013-10-26 11:06:00,80.6,65.8,29.49,West,270,12.0,14.0,61,0.00,,,0.00,meteohub,2013-10-26 17:06:00,
2013-10-26 11:11:00,80.6,66.4,29.47,NW,315,13.0,14.0,62,0.00,,,0.00,meteohub,2013-10-26 17:11:00,
2013-10-26 11:16:00,80.4,66.7,29.46,West,270,11.0,15.0,63,0.00,,,0.00,meteohub,2013-10-26 17:16:00,
2013-10-26 11:21:00,81.0,66.7,29.45,NW,315,14.0,15.0,62,0.00,,,0.00,meteohub,2013-10-26 17:21:00,
2013-10-26 11:26:00,80.6,65.8,29.45,NW,315,12.0,15.0,61,0.00,,,0.00,meteohub,2013-10-26 17:26:00,
2013-10-26 11:31:00,81.1,66.9,29.44,NW,315,11.0,15.0,62,0.00,,,0.00,meteohub,2013-10-26 17:31:00,
2013-10-26 11:36:00,80.6,66.4,29.45,NW,315,16.0,16.0,62,0.00,,,0.00,meteohub,2013-10-26 17:36:00,
2013-10-26 11:41:00,79.9,67.1,29.44,NW,315,18.0,18.0,65,0.00,,,0.00,meteohub,2013-10-26 17:41:00,
2013-10-26 11:46:00,77.5,66.2,29.44,NNW,338,13.0,19.0,68,0.00,,,0.00,meteohub,2013-10-26 17:46:00,
2013-10-26 11:51:00,77.5,66.6,29.43,NW,315,12.0,19.0,69,0.00,,,0.00,meteohub,2013-10-26 17:51:00,
2013-10-26 11:56:00,76.6,66.9,29.43,NW,315,14.0,19.0,72,0.00,,,0.00,meteohub,2013-10-26 17:56:00,
2013-10-26 12:01:00,75.9,67.5,29.42,NW,315,11.0,16.0,75,0.00,,,0.00,meteohub,2013-10-26 18:01:00,
2013-10-26 12:06:00,75.9,67.8,29.43,NW,315,10.0,16.0,76,0.00,,,0.00,meteohub,2013-10-26 18:06:00,
2013-10-26 12:11:00,75.6,67.5,29.42,West,270,6.0,16.0,76,0.00,,,0.00,meteohub,2013-10-26 18:11:00,
2013-10-26 12:16:00,74.5,67.5,29.41,WNW,293,7.0,14.0,79,0.00,,,0.00,meteohub,2013-10-26 18:16:00,
2013-10-26 12:21:00,74.3,67.6,29.42,NW,315,6.0,12.0,80,0.00,,,0.00,meteohub,2013-10-26 18:21:00,
2013-10-26 12:26:00,73.9,67.1,29.43,NW,315,10.0,12.0,79,0.00,,,0.00,meteohub,2013-10-26 18:26:00,
2013-10-26 12:31:00,73.6,66.7,29.43,West,270,7.0,12.0,79,0.00,,,0.00,meteohub,2013-10-26 18:31:00,
2013-10-26 12:36:00,73.4,67.6,29.43,SW,225,0.0,10.0,82,0.00,,,0.00,meteohub,2013-10-26 18:36:00,
2013-10-26 12:41:00,72.9,67.1,29.43,South,180,6.0,10.0,82,0.00,,,0.00,meteohub,2013-10-26 18:41:00,
2013-10-26 12:46:00,72.0,66.2,29.44,SW,225,7.0,7.0,82,0.00,,,0.00,meteohub,2013-10-26 18:46:00,
2013-10-26 12:51:00,70.3,65.3,29.43,SW,225,3.0,9.0,84,0.05,,,0.05,meteohub,2013-10-26 18:51:00,
2013-10-26 12:56:00,68.9,65.5,29.43,WNW,293,3.0,9.0,89,0.17,,,0.11,meteohub,2013-10-26 18:56:00,
2013-10-26 13:01:00,68.5,65.8,29.43,SW,225,4.0,8.0,91,0.21,,,0.21,meteohub,2013-10-26 19:01:00,
2013-10-26 13:07:00,68.2,66.0,29.44,WNW,293,4.0,6.0,93,0.30,,,0.30,meteohub,2013-10-26 19:07:00,
2013-10-26 13:12:00,68.2,66.4,29.43,SW,225,4.0,5.0,94,0.32,,,0.32,meteohub,2013-10-26 19:12:00,
2013-10-26 13:17:00,68.0,66.6,29.43,SW,225,4.0,6.0,95,0.35,,,0.35,meteohub,2013-10-26 19:17:00,
2013-10-26 13:22:00,67.8,66.6,29.42,SW,225,4.0,6.0,96,0.39,,,0.39,meteohub,2013-10-26 19:22:00,
2013-10-26 13:27:00,68.2,66.9,29.43,WNW,293,4.0,6.0,96,0.40,,,0.40,meteohub,2013-10-26 19:27:00,
2013-10-26 13:32:00,68.4,67.1,29.43,SW,225,5.0,6.0,96,0.43,,,0.43,meteohub,2013-10-26 19:32:00,
2013-10-26 13:37:00,68.7,67.5,29.42,SW,225,5.0,6.0,96,0.44,,,0.44,meteohub,2013-10-26 19:37:00,
2013-10-26 13:42:00,68.9,67.6,29.42,WNW,293,2.0,6.0,96,0.44,,,0.44,meteohub,2013-10-26 19:42:00,
2013-10-26 13:47:00,69.1,67.8,29.42,WSW,248,4.0,8.0,96,0.44,,,0.44,meteohub,2013-10-26 19:47:00,
2013-10-26 13:52:00,69.4,68.2,29.42,SW,225,4.0,8.0,96,0.37,,,0.45,meteohub,2013-10-26 19:52:00,
2013-10-26 13:57:00,69.6,68.2,29.42,SW,225,3.0,5.0,95,0.28,,,0.45,meteohub,2013-10-26 19:57:00,
2013-10-26 14:02:00,69.6,68.2,29.43,SW,225,5.0,7.0,95,0.21,,,0.47,meteohub,2013-10-26 20:02:00,
2013-10-26 14:07:00,69.6,67.8,29.43,SW,225,5.0,7.0,94,0.17,,,0.47,meteohub,2013-10-26 20:07:00,
2013-10-26 14:12:00,69.8,67.6,29.42,WNW,293,4.0,7.0,93,0.14,,,0.47,meteohub,2013-10-26 20:12:00,
2013-10-26 14:17:00,70.0,67.8,29.42,SW,225,4.0,7.0,93,0.12,,,0.47,meteohub,2013-10-26 20:17:00,
2013-10-26 14:22:00,70.3,68.2,29.42,SW,225,2.0,5.0,93,0.07,,,0.47,meteohub,2013-10-26 20:22:00,
2013-10-26 14:27:00,70.3,67.8,29.42,WNW,293,1.0,5.0,92,0.05,,,0.47,meteohub,2013-10-26 20:27:00,
2013-10-26 14:32:00,70.5,67.8,29.41,WNW,293,2.0,5.0,91,0.05,,,0.47,meteohub,2013-10-26 20:32:00,
2013-10-26 14:37:00,70.7,68.0,29.42,SW,225,0.0,3.0,91,0.04,,,0.47,meteohub,2013-10-26 20:37:00,
2013-10-26 14:42:00,71.1,68.0,29.41,NW,315,0.0,2.0,90,0.04,,,0.47,meteohub,2013-10-26 20:42:00,
2013-10-26 14:47:00,71.2,67.5,29.42,NW,315,0.0,2.0,88,0.04,,,0.47,meteohub,2013-10-26 20:47:00,
2013-10-26 14:52:00,71.6,67.1,29.42,SW,225,0.0,0.0,86,0.02,,,0.47,meteohub,2013-10-26 20:52:00,
2013-10-26 14:57:00,71.6,66.9,29.42,NNW,338,3.0,3.0,85,0.01,,,0.47,meteohub,2013-10-26 20:57:00,
2013-10-26 15:02:00,71.6,66.9,29.42,NW,315,0.0,3.0,85,0.00,,,0.47,meteohub,2013-10-26 21:02:00,
2013-10-26 15:07:00,71.4,66.7,29.42,NW,315,0.0,3.0,85,0.00,,,0.47,meteohub,2013-10-26 21:07:00,
2013-10-26 15:12:00,71.4,66.7,29.43,NW,315,0.0,4.0,85,0.00,,,0.47,meteohub,2013-10-26 21:12:00,
2013-10-26 15:17:00,71.4,67.1,29.42,WNW,293,0.0,4.0,86,0.00,,,0.47,meteohub,2013-10-26 21:17:00,
2013-10-26 15:22:00,71.2,66.6,29.43,NW,315,1.0,4.0,85,0.00,,,0.47,meteohub,2013-10-26 21:22:00,
2013-10-26 15:27:00,71.2,66.9,29.43,West,270,0.0,1.0,86,0.00,,,0.47,meteohub,2013-10-26 21:27:00,
2013-10-26 15:32:00,70.9,66.7,29.44,West,270,4.0,4.0,87,0.00,,,0.47,meteohub,2013-10-26 21:32:00,
2013-10-26 15:37:00,70.7,66.9,29.44,NW,315,4.0,5.0,88,0.00,,,0.47,meteohub,2013-10-26 21:37:00,
2013-10-26 15:42:00,70.3,66.2,29.44,WNW,293,4.0,7.0,87,0.00,,,0.47,meteohub,2013-10-26 21:42:00,
2013-10-26 15:47:00,70.3,66.6,29.44,NW,315,8.0,8.0,88,0.00,,,0.47,meteohub,2013-10-26 21:47:00,
2013-10-26 15:52:00,70.0,66.9,29.44,West,270,8.0,8.0,90,0.00,,,0.47,meteohub,2013-10-26 21:52:00,
2013-10-26 15:57:00,69.4,67.3,29.44,NW,315,8.0,8.0,93,0.00,,,0.47,meteohub,2013-10-26 21:57:00,
2013-10-26 16:02:00,69.3,67.5,29.44,West,270,6.0,8.0,94,0.00,,,0.47,meteohub,2013-10-26 22:02:00,
2013-10-26 16:07:00,68.9,67.5,29.45,NW,315,6.0,9.0,95,0.00,,,0.47,meteohub,2013-10-26 22:07:00,
2013-10-26 16:12:00,68.2,66.7,29.45,WNW,293,0.0,9.0,95,0.00,,,0.47,meteohub,2013-10-26 22:12:00,
2013-10-26 16:17:00,68.4,67.1,29.45,NW,315,0.0,9.0,96,0.00,,,0.47,meteohub,2013-10-26 22:17:00,
2013-10-26 16:23:00,68.4,67.1,29.46,NW,315,0.0,8.0,96,0.00,,,0.47,meteohub,2013-10-26 22:23:00,
2013-10-26 16:28:00,68.4,67.1,29.46,WNW,293,0.0,2.0,96,0.00,,,0.47,meteohub,2013-10-26 22:28:00,
2013-10-26 16:33:00,68.5,67.6,29.47,SW,225,0.0,1.0,97,0.00,,,0.47,meteohub,2013-10-26 22:33:00,
2013-10-26 16:38:00,68.4,67.5,29.46,West,270,0.0,1.0,97,0.00,,,0.47,meteohub,2013-10-26 22:38:00,
2013-10-26 16:43:00,68.2,67.3,29.46,NW,315,0.0,1.0,97,0.00,,,0.47,meteohub,2013-10-26 22:43:00,
2013-10-26 16:48:00,68.2,67.3,29.47,West,270,0.0,1.0,97,0.01,,,0.48,meteohub,2013-10-26 22:48:00,
2013-10-26 16:53:00,68.0,67.1,29.48,West,270,0.0,1.0,97,0.02,,,0.48,meteohub,2013-10-26 22:53:00,
2013-10-26 16:58:00,67.6,67.1,29.47,NW,315,1.0,1.0,98,0.02,,,0.50,meteohub,2013-10-26 22:58:00,
2013-10-26 17:03:00,67.5,66.9,29.48,WNW,293,2.0,3.0,98,0.05,,,0.52,meteohub,2013-10-26 23:03:00,
2013-10-26 17:08:00,67.5,66.9,29.47,NW,315,2.0,3.0,98,0.06,,,0.53,meteohub,2013-10-26 23:08:00,
2013-10-26 17:13:00,67.5,66.9,29.48,WNW,293,0.0,3.0,98,0.07,,,0.54,meteohub,2013-10-26 23:13:00,
2013-10-26 17:18:00,67.5,66.9,29.49,NW,315,0.0,3.0,98,0.07,,,0.54,meteohub,2013-10-26 23:18:00,
2013-10-26 17:23:00,67.3,66.7,29.49,WNW,293,2.0,4.0,98,0.07,,,0.54,meteohub,2013-10-26 23:23:00,
2013-10-26 17:28:00,67.1,66.6,29.49,NW,315,0.0,4.0,98,0.09,,,0.57,meteohub,2013-10-26 23:28:00,
2013-10-26 17:33:00,67.1,66.6,29.49,NW,315,0.0,4.0,98,0.11,,,0.58,meteohub,2013-10-26 23:33:00,
2013-10-26 17:38:00,66.9,66.6,29.50,WNW,293,2.0,4.0,99,0.11,,,0.58,meteohub,2013-10-26 23:38:00,
2013-10-26 17:43:00,66.7,66.4,29.50,WNW,293,3.0,4.0,99,0.12,,,0.59,meteohub,2013-10-26 23:43:00,
2013-10-26 17:48:00,66.7,66.4,29.51,West,270,1.0,4.0,99,0.13,,,0.61,meteohub,2013-10-26 23:48:00,
2013-10-26 17:53:00,66.7,66.4,29.50,West,270,0.0,4.0,99,0.13,,,0.63,meteohub,2013-10-26 23:53:00,
2013-10-26 17:58:00,66.7,66.4,29.50,West,270,0.0,3.0,99,0.14,,,0.65,meteohub,2013-10-26 23:58:00,
2013-10-26 18:03:00,66.7,66.4,29.51,WNW,293,0.0,2.0,99,0.15,,,0.67,meteohub,2013-10-27 00:03:00,
2013-10-26 18:08:00,66.7,66.4,29.52,WNW,293,0.0,2.0,99,0.15,,,0.69,meteohub,2013-10-27 00:08:00,
2013-10-26 18:13:00,66.7,66.4,29.52,NW,315,0.0,3.0,99,0.17,,,0.71,meteohub,2013-10-27 00:13:00,
2013-10-26 18:18:00,66.7,66.4,29.52,WNW,293,0.0,4.0,99,0.17,,,0.71,meteohub,2013-10-27 00:18:00,
2013-10-26 18:23:00,66.6,66.2,29.52,NW,315,5.0,5.0,99,0.18,,,0.73,meteohub,2013-10-27 00:23:00,
2013-10-26 18:29:00,66.4,66.0,29.52,West,270,0.0,5.0,99,0.19,,,0.76,meteohub,2013-10-27 00:29:00,
2013-10-26 18:34:00,66.4,66.0,29.53,SW,225,2.0,5.0,99,0.19,,,0.77,meteohub,2013-10-27 00:34:00,
2013-10-26 18:39:00,66.4,66.0,29.53,NW,315,1.0,5.0,99,0.24,,,0.81,meteohub,2013-10-27 00:39:00,
2013-10-26 18:44:00,66.4,66.0,29.53,NW,315,0.0,2.0,99,0.24,,,0.83,meteohub,2013-10-27 00:44:00,
2013-10-26 18:49:00,66.4,66.0,29.53,West,270,2.0,2.0,99,0.22,,,0.85,meteohub,2013-10-27 00:49:00,
2013-10-26 18:54:00,66.4,66.0,29.53,NW,315,3.0,4.0,99,0.24,,,0.87,meteohub,2013-10-27 00:54:00,
2013-10-26 18:59:00,66.4,66.0,29.53,WNW,293,0.0,4.0,99,0.21,,,0.87,meteohub,2013-10-27 00:59:00,
2013-10-26 19:04:00,66.4,66.0,29.53,WNW,293,0.0,4.0,99,0.21,,,0.89,meteohub,2013-10-27 01:04:00,
2013-10-26 19:09:00,66.4,66.0,29.55,NW,315,0.0,3.0,99,0.20,,,0.90,meteohub,2013-10-27 01:09:00,
2013-10-26 19:14:00,66.6,66.2,29.55,NW,315,4.0,0.0,99,0.19,,,0.90,meteohub,2013-10-27 01:14:00,
2013-10-26 19:19:00,66.4,66.0,29.55,NW,315,2.0,0.0,99,0.19,,,0.91,meteohub,2013-10-27 01:19:00,
2013-10-26 19:24:00,66.4,66.0,29.55,NW,315,2.0,4.0,99,0.18,,,0.91,meteohub,2013-10-27 01:24:00,
2013-10-26 19:29:00,66.4,66.0,29.54,West,270,2.0,4.0,99,0.15,,,0.91,meteohub,2013-10-27 01:29:00,
2013-10-26 19:34:00,66.2,65.8,29.55,SW,225,0.0,4.0,99,0.13,,,0.92,meteohub,2013-10-27 01:34:00,
2013-10-26 19:39:00,66.2,65.8,29.55,NW,315,0.0,4.0,99,0.12,,,0.92,meteohub,2013-10-27 01:39:00,
2013-10-26 19:44:00,66.2,65.8,29.56,NW,315,2.0,4.0,99,0.09,,,0.93,meteohub,2013-10-27 01:44:00,
2013-10-26 19:49:00,66.0,65.7,29.55,NW,315,3.0,4.0,99,0.07,,,0.93,meteohub,2013-10-27 01:49:00,
2013-10-26 19:54:00,66.0,65.7,29.56,NW,315,0.0,4.0,99,0.07,,,0.94,meteohub,2013-10-27 01:54:00,
2013-10-26 19:59:00,66.0,65.7,29.56,NW,315,0.0,4.0,99,0.07,,,0.94,meteohub,2013-10-27 01:59:00,
2013-10-26 20:04:00,65.8,65.5,29.56,WNW,293,2.0,4.0,99,0.05,,,0.94,meteohub,2013-10-27 02:04:00,
2013-10-26 20:09:00,65.8,65.5,29.56,WNW,293,2.0,4.0,99,0.05,,,0.94,meteohub,2013-10-27 02:09:00,
2013-10-26 20:14:00,66.0,65.7,29.56,West,270,0.0,3.0,99,0.05,,,0.94,meteohub,2013-10-27 02:14:00,
2013-10-26 20:19:00,65.8,65.5,29.55,NW,315,2.0,3.0,99,0.04,,,0.94,meteohub,2013-10-27 02:19:00,
2013-10-26 20:24:00,65.8,65.5,29.57,WNW,293,1.0,4.0,99,0.04,,,0.94,meteohub,2013-10-27 02:24:00,
2013-10-26 20:29:00,65.8,65.5,29.56,SW,225,0.0,4.0,99,0.04,,,0.94,meteohub,2013-10-27 02:29:00,
2013-10-26 20:34:00,65.8,65.5,29.57,West,270,1.0,4.0,99,0.02,,,0.94,meteohub,2013-10-27 02:34:00,
2013-10-26 20:39:00,65.8,65.5,29.57,NW,315,0.0,4.0,99,0.01,,,0.94,meteohub,2013-10-27 02:39:00,
2013-10-26 20:44:00,66.0,65.7,29.56,NW,315,0.0,4.0,99,0.01,,,0.94,meteohub,2013-10-27 02:44:00,
2013-10-26 20:49:00,65.8,65.5,29.57,NW,315,0.0,1.0,99,0.00,,,0.94,meteohub,2013-10-27 02:49:00,
2013-10-26 20:54:00,65.8,65.5,29.57,NW,315,0.0,0.0,99,0.00,,,0.94,meteohub,2013-10-27 02:54:00,
2013-10-26 20:59:00,65.8,65.5,29.55,NNE,23,0.0,0.0,99,0.00,,,0.94,meteohub,2013-10-27 02:59:00,
2013-10-26 21:04:00,65.8,65.5,29.56,NNE,23,1.0,0.0,99,0.00,,,0.94,meteohub,2013-10-27 03:04:00,
2013-10-26 21:09:00,65.8,65.5,29.56,NNE,23,0.0,1.0,99,0.00,,,0.94,meteohub,2013-10-27 03:09:00,
2013-10-26 21:14:00,65.8,65.5,29.57,NNE,23,0.0,1.0,99,0.00,,,0.94,meteohub,2013-10-27 03:14:00,
2013-10-26 21:19:00,65.8,65.5,29.58,NNE,23,0.0,1.0,99,0.00,,,0.94,meteohub,2013-10-27 03:19:00,
2013-10-26 21:24:00,65.7,65.3,29.57,NNE,23,1.0,0.0,99,0.00,,,0.94,meteohub,2013-10-27 03:24:00,
2013-10-26 21:29:00,65.7,65.3,29.57,NNE,23,0.0,0.0,99,0.00,,,0.94,meteohub,2013-10-27 03:29:00,
2013-10-26 21:34:00,65.7,65.3,29.57,North,-999,-999.0,1.0,99,0.00,,,0.94,meteohub,2013-10-27 03:34:00,
2013-10-26 21:39:00,65.7,65.3,29.57,North,-999,-999.0,1.0,99,0.00,,,0.94,meteohub,2013-10-27 03:39:00,
2013-10-26 21:45:00,65.7,65.3,29.57,North,-999,-999.0,0.0,99,0.00,,,0.94,meteohub,2013-10-27 03:45:00,
2013-10-26 21:50:00,65.7,65.3,29.56,NNE,23,0.0,-999.0,99,0.00,,,0.94,meteohub,2013-10-27 03:50:00,
2013-10-26 21:55:00,65.8,65.5,29.57,North,-999,-999.0,0.0,99,0.00,,,0.94,meteohub,2013-10-27 03:55:00,
2013-10-26 22:00:00,65.8,65.5,29.57,North,-999,-999.0,0.0,99,0.00,,,0.94,meteohub,2013-10-27 04:00:00,
2013-10-26 22:01:00,65.8,65.5,29.57,North,-999,-999.0,0.0,99,0.00,,,0.94,meteohub,2013-10-27 04:01:00,
2013-10-26 22:02:00,65.8,65.5,29.57,North,-999,-999.0,0.0,99,0.00,,,0.94,meteohub,2013-10-27 04:02:00,
2013-10-26 22:07:00,65.7,65.3,29.57,North,-999,-999.0,-999.0,99,0.00,,,0.94,meteohub,2013-10-27 04:07:00,
2013-10-26 22:12:00,65.7,65.3,29.57,NNE,23,0.0,-999.0,99,0.00,,,0.94,meteohub,2013-10-27 04:12:00,
2013-10-26 22:17:00,65.7,65.3,29.57,NNE,23,0.0,0.0,99,0.00,,,0.94,meteohub,2013-10-27 04:17:00,
2013-10-26 22:22:00,65.7,65.3,29.57,NNE,23,0.0,0.0,99,0.00,,,0.94,meteohub,2013-10-27 04:22:00,
2013-10-26 22:27:00,65.5,65.1,29.56,NNE,23,1.0,2.0,99,0.00,,,0.94,meteohub,2013-10-27 04:27:00,
2013-10-26 22:32:00,65.5,65.1,29.57,North,-999,-999.0,2.0,99,0.00,,,0.94,meteohub,2013-10-27 04:32:00,
2013-10-26 22:37:00,65.5,65.1,29.56,North,-999,-999.0,1.0,99,0.00,,,0.94,meteohub,2013-10-27 04:37:00,
2013-10-26 22:42:00,65.5,65.1,29.56,NNE,23,0.0,-999.0,99,0.00,,,0.94,meteohub,2013-10-27 04:42:00,
2013-10-26 22:47:00,65.5,65.1,29.56,North,-999,-999.0,0.0,99,0.00,,,0.94,meteohub,2013-10-27 04:47:00,
2013-10-26 22:52:00,65.3,64.9,29.55,NNE,23,0.0,0.0,99,0.00,,,0.94,meteohub,2013-10-27 04:52:00,
2013-10-26 22:57:00,65.3,64.9,29.55,NNE,23,2.0,0.0,99,0.00,,,0.94,meteohub,2013-10-27 04:57:00,
2013-10-26 23:02:00,65.3,64.9,29.55,NNE,23,4.0,4.0,99,0.00,,,0.94,meteohub,2013-10-27 05:02:00,
2013-10-26 23:07:00,65.3,64.9,29.55,NNE,23,0.0,4.0,99,0.00,,,0.94,meteohub,2013-10-27 05:07:00,
2013-10-26 23:12:00,65.3,64.9,29.54,NNE,23,0.0,4.0,99,0.00,,,0.94,meteohub,2013-10-27 05:12:00,
2013-10-26 23:17:00,65.3,64.9,29.55,NNE,23,2.0,4.0,99,0.00,,,0.94,meteohub,2013-10-27 05:17:00,
2013-10-26 23:22:00,65.3,64.9,29.55,NNE,23,2.0,2.0,99,0.00,,,0.94,meteohub,2013-10-27 05:22:00,
2013-10-26 23:27:00,65.1,64.8,29.54,NNE,23,4.0,4.0,99,0.00,,,0.94,meteohub,2013-10-27 05:27:00,
2013-10-26 23:32:00,65.1,64.8,29.54,South,180,0.0,4.0,99,0.00,,,0.94,meteohub,2013-10-27 05:32:00,
2013-10-26 23:37:00,65.1,64.8,29.54,NNE,23,0.0,4.0,99,0.00,,,0.94,meteohub,2013-10-27 05:37:00,
2013-10-26 23:42:00,65.1,64.8,29.54,NNE,23,0.0,4.0,99,0.00,,,0.94,meteohub,2013-10-27 05:42:00,
2013-10-26 23:47:00,65.1,64.8,29.53,NNE,23,0.0,0.0,99,0.00,,,0.94,meteohub,2013-10-27 05:47:00,
2013-10-26 23:52:00,65.1,64.8,29.53,North,-999,-999.0,0.0,99,0.00,,,0.94,meteohub,2013-10-27 05:52:00,
2013-10-26 23:57:00,64.9,64.6,29.53,North,-999,-999.0,0.0,99,0.00,,,0.94,meteohub,2013-10-27 05:57:00,